GRARBER Weather Reports


Display with metric or nautical units.
time (UTC)temp
F
wind
direction
speed
MPH
gust
MPH
rain 1hr
in
rain 24hr
in
rain mn
in
humidity
%
barometer
mb
20260901041954 48 250 20.0 28.0 0.00 0.00 0.00 99
20260901031654 48 250 17.0 24.0 0.00 0.00 0.00 99
20260901021855 48 260 20.0 26.0 0.00 0.00 0.00 99
20260901011855 48 260 22.0 31.0 0.00 0.00 0.00 99
20260901001655 48 270 24.0 33.0 0.00 0.00 0.00 99
20260831231811 48 270 21.0 31.0 0.00 0.00 0.00 93
20260831221955 50 280 24.0 37.0 0.00 0.00 0.00 87
20260831211654 52 260 24.0 35.0 0.00 0.00 0.00 81
20260831201855 54 260 22.0 31.0 0.00 0.00 0.00 71
20260831191855 54 270 23.0 33.0 0.00 0.00 0.00 71
20260831181655 54 270 22.0 30.0 0.00 0.00 0.00 76
20260831171855 57 250 16.0 23.0 0.00 0.00 0.00 76
20260831161955 55 240 12.0 20.0 0.00 0.00 0.00 76
20260831151656 57 250 13.0 23.0 0.00 0.00 0.00 76
20260831141754 57 240 16.0 0.0 0.00 0.00 0.00 82
20260831131755 54 250 17.0 0.0 0.00 0.00 0.00 93
20260831121655 54 240 17.0 26.0 0.00 0.00 0.00 99
20260831111755 52 240 23.0 36.0 0.00 0.00 0.00 99
20260831101955 50 260 22.0 37.0 0.00 0.00 0.00 99
20260831091655 52 270 25.0 37.0 0.00 0.00 0.00 99
20260831081755 52 240 20.0 28.0 0.00 0.00 0.00 99
20260831071756 52 230 23.0 31.0 0.00 0.00 0.00 99
20260831061710 52 230 30.0 40.0 0.00 0.00 0.00 99
20260831051911 54 180 18.0 29.0 0.00 0.00 0.00 99